Location: Newark
(34.1333°N, 7.9667°W)
Time: 02:02:14
(UTC+00:00)

Transit 2A - All Passes

Search period start: 04 December 2021 00:00
Search period end: 14 December 2021 00:00
Orbit: 591 x 967 km, 66.7° (Epoch: 03 December)

Date Brightness Start Highest point End Pass type
(mag) Time Alt. Az. Time Alt. Az. Time Alt. Az.
04 Dec - 00:16:56 10° SSW 00:22:21 80° WNW 00:28:23 10° NNE night (unlit)
04 Dec - 02:04:10 10° WNW 02:06:40 13° NW 02:09:16 10° NNW night (unlit)
04 Dec - 09:07:42 10° NNW 09:13:45 43° ENE 09:19:26 10° SE daylight
04 Dec - 10:51:33 10° NW 10:56:41 27° WSW 11:01:35 10° SSW daylight
04 Dec - 23:42:48 10° SSW 23:48:10 70° ESE 23:54:07 10° NNE night (unlit)
05 Dec - 01:28:15 10° W 01:32:04 18° NW 01:36:05 10° N night (unlit)
05 Dec - 08:33:46 10° N 08:39:21 31° NE 08:44:38 10° ESE daylight
05 Dec - 10:16:51 10° NW 10:22:40 40° WSW 10:28:07 10° S daylight
05 Dec - 23:08:55 10° S 23:14:02 46° ESE 23:19:43 10° NE night (unlit)
06 Dec - 00:52:57 10° WSW 00:57:32 25° NW 01:02:27 10° N night (unlit)
06 Dec - 08:00:00 10° N 08:04:52 22° NE 08:09:32 10° E daylight
06 Dec - 09:42:22 10° NW 09:48:35 60° WSW 09:54:21 10° S daylight
06 Dec - 22:35:20 10° SSE 22:40:00 30° ESE 22:45:05 10° NE night (unlit)
07 Dec - 00:18:01 10° WSW 00:23:04 35° NW 00:28:36 10° N night (unlit)
07 Dec - 07:26:28 10° N 07:30:18 16° NE 07:34:02 10° E daylight
07 Dec - 09:08:03 10° NNW 09:14:25 86° WSW 09:20:19 10° SSE daylight
07 Dec - 10:56:01 10° W 10:56:35 10° W 10:57:09 10° WSW daylight
07 Dec - 22:02:11 10° SSE 22:06:02 20° ESE 22:10:08 10° ENE night (unlit)
07 Dec - 23:43:21 10° SW 23:48:42 50° WNW 23:54:36 10° NNE night (unlit)
08 Dec - 06:53:32 10° NNE 06:55:39 12° NE 06:57:46 10° ENE visible
08 Dec - 08:33:51 10° NNW 08:40:10 66° ENE 08:46:03 10° SE daylight
08 Dec - 10:18:59 10° WNW 10:22:41 17° WSW 10:26:14 10° SW daylight
08 Dec - 21:29:51 10° SE 21:32:07 13° E 21:34:27 10° ENE night (unlit)
08 Dec - 23:08:56 10° SSW 23:14:24 75° WNW 23:20:29 10° NNE night (unlit)
09 Dec - 00:56:33 10° WNW 00:58:48 12° NW 01:01:07 10° NNW night (unlit)
09 Dec - 07:59:46 10° NNW 08:05:51 46° ENE 08:11:33 10° SE daylight
09 Dec - 09:43:47 10° NW 09:48:43 25° WSW 09:53:23 10° SSW daylight
09 Dec - 22:34:45 10° SSW 22:40:12 75° ESE 22:46:15 10° NNE night (unlit)
10 Dec - 00:20:30 10° W 00:24:11 17° NW 00:28:03 10° N night (unlit)
10 Dec - 07:25:49 10° N 07:31:28 33° NE 07:36:47 10° ESE daylight
10 Dec - 09:09:01 10° NW 09:14:42 37° WSW 09:20:01 10° S daylight
10 Dec - 22:00:49 10° S 22:06:04 50° ESE 22:11:52 10° NE night (unlit)
10 Dec - 23:45:06 10° WSW 23:49:38 24° NW 23:54:28 10° N night (unlit)
11 Dec - 06:52:00 10° N 06:56:59 24° NE 07:01:45 10° ESE visible
11 Dec - 08:34:30 10° NW 08:40:37 55° WSW 08:46:18 10° S daylight
11 Dec - 21:27:10 10° S 21:32:01 33° ESE 21:37:17 10° NE night (unlit)
11 Dec - 23:10:07 10° WSW 23:15:09 33° NW 23:20:39 10° N night (unlit)
12 Dec - 06:18:25 10° N 06:22:26 17° NE 06:26:20 10° E visible
12 Dec - 08:00:09 10° NNW 08:06:29 81° WSW 08:12:18 10° SSE daylight
12 Dec - 20:53:54 10° SSE 20:58:02 22° ESE 21:02:26 10° NE night (unlit)
12 Dec - 22:35:24 10° SW 22:40:46 47° WNW 22:46:41 10° NNE night (unlit)
13 Dec - 05:45:18 10° NNE 05:47:48 12° NE 05:50:15 10° ENE visible
13 Dec - 07:25:56 10° NNW 07:32:15 71° ENE 07:38:05 10° SSE daylight
13 Dec - 09:11:23 10° WNW 09:14:40 15° WSW 09:17:51 10° SW daylight
13 Dec - 20:21:18 10° SE 20:24:05 14° E 20:27:00 10° ENE night (unlit)
13 Dec - 22:00:56 10° SW 22:06:28 70° WNW 22:12:35 10° NNE night (unlit)
13 Dec - 23:48:59 10° WNW 23:50:56 12° NW 23:52:56 10° NNW night (unlit)
